{"data":{"norad_id":44424,"epoch":"2026-09-20T05:24:45.957888Z","epoch_age_seconds":85480,"freshness":"FRESH","line1":"1 44424U 19039D   26263.22553192  .00003914  00000+0  17243-3 0  9994","line2":"2 44424  97.5817 343.3046 0042577  74.0002 286.5917 15.21608936394351","mean_motion":15.21608936,"eccentricity":0.0042577,"inclination_deg":97.5817,"raan_deg":343.3046,"arg_perigee_deg":74.0002,"mean_anomaly_deg":286.5917,"bstar":0.00017243,"rev_number":39435,"period_min":94.636668195802,"perigee_km":471.69780645316,"apogee_km":530.27629941351,"semimajor_km":6879.1240529333,"source":"CELESTRAK","updated_at":"2026-09-20T09:00:14.527400Z"}}